Change the Weather History Date:

Tuesday, September 3, 2013

  Actual Average Record
Temperature  
Mean Temperature 81 °F 76 °F  
Max Temperature 94 °F 89 °F 102 °F (2012)
Min Temperature 67 °F 63 °F 50 °F (1955)
Degree Days  
Heating Degree Days 0 0  
Month to date heating degree days 0 0  
Since 1 July heating degree days 0 0  
Cooling Degree Days 16 11  
Month to date cooling degree days 51 34  
Year to date cooling degree days 1915 1558  
Growing Degree Days 30 (Base 50)    
Moisture  
Dew Point 54 °F    
Average Humidity 49    
Maximum Humidity 81    
Minimum Humidity 17    
Precipitation  
Precipitation 0.00 in 0.05 in 2.45 in (2006)
Month to date precipitation 0.00 0.16  
Year to date precipitation 4.60 9.09  
Sea Level Pressure  
Sea Level Pressure 29.93 in    
Wind  
Wind Speed 5 mph (SSE)    
Max Wind Speed 18 mph    
Max Gust Speed 26 mph    
Visibility 10 miles    
Events      
T = Trace of Precipitation, MM = Missing Value Source: NWS Daily Summary

Daily Weather History Graph

Daily Weather History Graph

Search for Another Location

Airport or City:

Trip Planner

Search our weather history database for the weather conditions in past years. The results will help you decide how hot, cold, wet, or windy it might be!

Date:

Astronomy

Sep. 03, 2013 Rise Set
Actual Time 6:33 AM MDT 7:20 PM MDT
Civil Twilight 6:08 AM MDT 7:45 PM MDT
Nautical Twilight 5:38 AM MDT 8:15 PM MDT
Astronomical Twilight 5:08 AM MDT 8:45 PM MDT
Moon 4:52 AM MDT (9/3) 6:07 PM MDT (9/3)
Length of Visible Light 13h 36m
Length of Day
12h 46m
Waning Crescent, 3% of the Moon is Illuminated
Sep 3
Waning Crescent
Sep 5
New
Sep 12
First Quarter
Sep 19
Full
Sep 26
Last Quarter

Hourly Weather History & Observations

Time (MDT) Temp. Heat Index Dew Point Humidity Pressure Visibility Wind Dir Wind Speed Gust Speed Precip Events Conditions
12:51 AM 73.0 °F - 63.0 °F 71% 29.92 in 10.0 mi Calm Calm - N/A   Clear
1:51 AM 72.0 °F - 62.1 °F 71% 29.92 in 10.0 mi Calm Calm - N/A   Clear
2:51 AM 70.0 °F - 61.0 °F 73% 29.92 in 10.0 mi WNW 4.6 mph - N/A   Clear
3:51 AM 70.0 °F - 61.0 °F 73% 29.91 in 10.0 mi WNW 3.5 mph - N/A   Clear
4:51 AM 70.0 °F - 61.0 °F 73% 29.92 in 10.0 mi Calm Calm - N/A   Clear
5:51 AM 66.9 °F - 60.1 °F 79% 29.96 in 10.0 mi Calm Calm - N/A   Clear
6:51 AM 69.1 °F - 61.0 °F 75% 29.97 in 10.0 mi Calm Calm - N/A   Clear
7:51 AM 71.1 °F - 60.1 °F 68% 29.99 in 10.0 mi North 3.5 mph - N/A   Clear
8:51 AM 75.9 °F - 60.1 °F 58% 29.99 in 10.0 mi Calm Calm - N/A   Clear
9:51 AM 80.1 °F 80.9 °F 60.1 °F 50% 29.99 in 10.0 mi Calm Calm - N/A   Clear
10:51 AM 84.0 °F 83.8 °F 59.0 °F 43% 29.99 in 10.0 mi Variable 3.5 mph - N/A   Clear
11:51 AM 87.1 °F 86.1 °F 57.9 °F 37% 29.99 in 10.0 mi Variable 5.8 mph - N/A   Clear
12:51 PM 91.0 °F 88.7 °F 54.0 °F 28% 29.96 in 10.0 mi SE 9.2 mph 17.3 mph N/A   Clear
1:51 PM 91.9 °F - 50.0 °F 24% 29.92 in 10.0 mi South 10.4 mph 19.6 mph N/A   Clear
2:51 PM 93.0 °F - 48.9 °F 22% 29.90 in 10.0 mi SSE 8.1 mph 20.7 mph N/A   Clear
3:51 PM 93.9 °F - 48.0 °F 21% 29.88 in 10.0 mi SE 13.8 mph 26.5 mph N/A   Clear
4:51 PM 93.0 °F - 43.0 °F 18% 29.86 in 10.0 mi South 9.2 mph 17.3 mph N/A   Clear
5:51 PM 91.9 °F - 46.0 °F 21% 29.86 in 10.0 mi SSE 11.5 mph 20.7 mph N/A   Clear
6:51 PM 90.0 °F - 45.0 °F 21% 29.86 in 10.0 mi South 10.4 mph - N/A   Clear
7:51 PM 82.9 °F - 45.0 °F 26% 29.88 in 10.0 mi Calm Calm - N/A   Clear
8:51 PM 81.0 °F - 46.9 °F 30% 29.89 in 10.0 mi SE 6.9 mph - N/A   Clear
9:51 PM 78.1 °F - 45.0 °F 31% 29.91 in 10.0 mi SSE 4.6 mph - N/A   Clear
10:51 PM 73.9 °F - 45.0 °F 35% 29.93 in 10.0 mi South 4.6 mph - N/A   Clear
11:51 PM 72.0 °F - 45.0 °F 38% 29.95 in 10.0 mi South 6.9 mph - N/A   Clear